Regional Weather Roundup
Issued by NWS

Home | Current Version | Previous Version | Text Only | Print | Product List | Glossary On
Versions: 1 2 3 4 5 6 7 8 9 10 11 12 13 14 15 16 17 18 19 20 21 22 23 24 25 26 27 28 29 30 31 32 33 34 35 36 37 38 39 40 41 42 43 44 45 46 47 48 49 50
000
ASCA44 KEWX 231420
RWRMX

LATIN AMERICA AND CARIBBEAN REGIONAL WEATHER ROUNDUP
NATIONAL WEATHER SERVICE AUSTIN/SAN ANTONIO TX
900 AM CDT WED APR 23 2014

NOTE: "FAIR" INDICATED FEW OR NO CLOUDS BELOW 12,000 FEET WITH NO
SIGNIFICANT WEATHER AND/OR OBSTRUCTIONS TO VISIBILITY.

BAJA CALIFORNIA

CITY           SKY/WX    TMP DP  RH WIND       PRES   REMARKS
TIJUANA        MOCLDY    55  46  71 E6        29.97R

NORTHWESTERN MEXICO

CITY           SKY/WX    TMP DP  RH WIND       PRES   REMARKS
CULIACAN       SUNNY     64  55  72 CALM      29.87
DURANGO        SUNNY     57  39  51 S3        30.19
GUAYMAS        PTSUNNY   72  55  56 CALM      29.78
HERMOSILLO     MOSUNNY   72  43  35 CALM      29.84
CD. JUAREZ     PTSUNNY   72  36  26 W13       29.87
OBREGON        PTSUNNY   70  39  32 E3        29.80

NORTHEASTERN MEXICO

CITY           SKY/WX    TMP DP  RH WIND       PRES   REMARKS
CHIHUAHUA      PTSUNNY   61  32  33 CALM      30.00
MATAMOROS      MOSUNNY   73  72  94 SE12      29.94
MONCLOVA       SUNNY     72  59  64 CALM      29.87R
MONTERREY      CLOUDY    68  66  94 SE6       29.89S FOG
NUEVO LAREDO   CLOUDY    72  66  83 S9        29.89
PIEDRAS NEGRAS PTSUNNY   70  54  56 SE12      29.89R
REYNOSA        CLOUDY    70  66  88 S12       29.91
SALTILLO       SUNNY     73  50  43 SE12      30.09R
TORREON        SUNNY     70  45  40 E5        30.01R
CD. VICTORIA   MOSUNNY   72  66  83 S7        29.90

WESTERN MEXICO

CITY           SKY/WX    TMP DP  RH WIND       PRES   REMARKS
AGUASCALIENTES SUNNY     59  37  44 W5        30.24
COLIMA         SUNNY     68  63  83 CALM      29.97R
DEL BAJIO      SUNNY     64  52  63 CALM      30.24R
GUADALAJARA    SUNNY     63  37  39 N5        30.15
MANZANILLO     CLOUDY    75  72  88 N5        29.85R
MAZATLAN       MOSUNNY   64  55  72 N9        29.85R
P. VALLARTA    SUNNY     68  59  73 CALM      29.83S
URUAPAN        SUNNY     59  52  77 CALM      30.18R
ZACATECAS      SUNNY     59  37  44 S6        30.25R

CENTRAL MEXICO

CITY           SKY/WX    TMP DP  RH WIND       PRES   REMARKS
CUERNAVACA     MOSUNNY   73  46  38 CALM      30.13R
MEXICO CITY    MOSUNNY   61  50  67 E3        30.33R
MORELIA        MOSUNNY   59  48  67 CALM      30.23
POZA RICA      FOG       73  72  94 NE8       29.95  VSB 3/4
PUEBLA         MOSUNNY   57  46  67 CALM      30.33R
QUERETARO      SUNNY     55  50  82 SW7       30.27S
S. LUIS POTOSI SUNNY     61  55  82 S6        30.20R
TAMPICO        MOSUNNY   75  72  88 E12       29.91R
TOLUCA         SUNNY     54  43  66 E3        30.40R

SOUTHERN MEXICO

CITY           SKY/WX    TMP DP  RH WIND       PRES   REMARKS
ACAPULCO       MOSUNNY   81  72  74 N5        29.88R
B. DE HUATULCO MOSUNNY   81  72  74 CALM      29.90
OAXACA         PTSUNNY   68  52  56 SW2       30.22R
P. ESCONDIDO   MOSUNNY   82  68  61 CALM      29.97S
VERACRUZ       MOSUNNY   75  72  88 S5        29.92S
ZIHUATANEJO    MOSUNNY   77  68  73 CALM      29.88R

YUCATAN PENINSULA

CITY           SKY/WX    TMP DP  RH WIND       PRES   REMARKS
CAMPECHE       MOSUNNY   79  72  78 SE7       29.91R
CANCUN         SUNNY     79  64  61 N3        29.98R
CHETUMAL       MOSUNNY   81  72  74 E12       29.93R
CD. DEL CARMEN MOSUNNY   81  72  74 N5        29.90
COZUMEL        MOSUNNY   75  68  78 NE9       29.97R
MERIDA         CLOUDY    77  63  61 E12       29.95R
MINATITLAN     MOSUNNY   77  68  73 CALM      29.93
TAPACHULA      PTSUNNY   81  73  78 CALM      29.89R
TUX. GUTIERREZ MOSUNNY   79  66  65 NW8       29.97R HAZE
VILLAHERMOSA   MOSUNNY   79  75  89 CALM      29.94R

CENTRAL AMERICA

CITY           SKY/WX    TMP DP  RH WIND       PRES   REMARKS
BELIZE CITY    PTSUNNY   84  73  70 SE8       29.95  HX  91
MANAGUA        MOSUNNY   82  72  69 E12       29.89

CARIBBEAN

CITY           SKY/WX    TMP DP  RH WIND       PRES   REMARKS
ARUBA          MOSUNNY   86  75  70 E22       29.89R HX  95
CURACAO        MOSUNNY   84  75  74 E17       29.92S HX  92
KINGSTON       MOSUNNY  N/A N/A N/A S6        29.94R
NASSAU         MOSUNNY   79  66  65 SW9       29.97R
SAN JUAN       MOSUNNY   90  70  51 SE7       29.98S HX  95
SANTO DOMINGO  MOSUNNY   82  73  74 S7        29.97S
ST. CROIX      SUNNY     84  72  65 SE10      30.01S
ST. KITTS      MOSUNNY   84  72  65 SW9       30.00S
ST. MAARTEN    MOSUNNY   82  73  74 SE7       30.00S
ST. THOMAS     MOSUNNY   82  75  78 S9        30.00R

$$




USA.gov is the U.S. government's official web portal to all federal, state and local government web resources and services.